Simultaneous Nadir Overpasses (SNOs) Predictions

Prediction of SNOs between METOP-A and TERRA Satellite Orbit:

Table of predicted SNOs for the next 14.0 days since TLE Epoch: 10/30/2021
Index Date (METOP-A) Time (METOP-A) Lat,Lon (METOP-A) SZA (METOP-A ) Date (TERRA) Time (TERRA) Lat,Lon (TERRA) SZA (TERRA ) Distance(km) Time Diff (sec)
1 10/31/2021 17:54:24 81.26, -44.59 98.40 10/31/2021 17:55:37 81.25, -44.54 98.43 1.23 73
2 10/31/2021 18:45:04 -81.25, 122.93 81.58 10/31/2021 18:45:04 -81.25, 123.02 81.57 1.54 0
3 10/31/2021 19:35:43 81.22, -68.98 98.50 10/31/2021 19:34:30 81.25, -69.26 98.46 5.86 73
4 11/03/2021 13:28:43 81.26, 21.86 99.28 11/03/2021 13:29:50 81.24, 21.74 99.29 2.54 67
5 11/03/2021 14:19:23 -81.25,-170.61 80.69 11/03/2021 14:19:17 -81.24,-170.68 80.71 1.53 6
6 11/06/2021 09:03:01 81.25, 88.26 100.13 11/06/2021 09:04:01 81.25, 88.30 100.16 0.74 60
7 11/06/2021 09:53:41 -81.24,-104.19 79.85 11/06/2021 09:53:28 -81.25,-104.09 79.84 1.71 13
8 11/09/2021 04:37:20 81.25, 154.64 100.93 11/09/2021 04:38:13 81.25, 154.79 100.97 2.59 53
9 11/09/2021 05:28:00 -81.24, -37.81 79.05 11/09/2021 05:27:41 -81.23, -37.96 79.08 2.93 19
10 11/12/2021 00:11:38 81.24,-138.65 101.72 11/12/2021 00:12:25 81.25,-138.81 101.74 3.13 47



Historial Predications of SNOs between METOP-A and TERRA
